| time (UTC) | temp C | wind direction | speed KPH | gust KPH | rain 1hr cm | rain 24hr cm | rain mn cm | humidity % | barometer mb |
| 20260510043028 | 21 | 67 | 0.0 | 0.0 | 0.00 | 0.28 | 0.28 | 99 | 1011.8 |
| 20260510041526 | 21 | 68 | 0.0 | 0.0 | 0.00 | 0.28 | 0.28 | 98 | 1012.0 |
| 20260510034526 | 21 | 44 | 1.6 | 8.0 | 0.00 | 0.28 | 0.28 | 98 | 1011.8 |
| 20260510033025 | 21 | 69 | 3.2 | 12.9 | 0.08 | 0.28 | 0.28 | 98 | 1011.7 |
| 20260510031525 | 21 | 76 | 4.8 | 9.7 | 0.15 | 0.28 | 0.28 | 98 | 1011.4 |
| 20260510030024 | 21 | 207 | 11.3 | 27.4 | 0.20 | 0.28 | 0.28 | 98 | 1011.0 |
| 20260510024522 | 21 | 117 | 19.3 | 29.0 | 0.23 | 0.28 | 0.28 | 98 | 1010.4 |
| 20260510023019 | 21 | 164 | 11.3 | 17.7 | 0.13 | 0.18 | 0.18 | 98 | 1011.5 |
| 20260510021519 | 21 | 120 | 12.9 | 24.1 | 0.08 | 0.13 | 0.13 | 98 | 1011.5 |
| 20260510020017 | 21 | 131 | 11.3 | 14.5 | 0.00 | 0.05 | 0.05 | 97 | 1011.7 |
| 20260510014516 | 21 | 149 | 0.0 | 6.4 | 0.00 | 0.05 | 0.05 | 97 | 1012.2 |
| 20260510013012 | 21 | 110 | 0.0 | 6.4 | 0.00 | 0.05 | 0.05 | 96 | 1011.4 |
| 20260510011520 | 22 | 114 | 1.6 | 4.8 | 0.00 | 0.05 | 0.05 | 96 | 1011.2 |
| 20260510010009 | 22 | 89 | 0.0 | 3.2 | 0.00 | 0.05 | 0.05 | 95 | 1011.0 |
| 20260510004511 | 22 | 56 | 1.6 | 9.7 | 0.00 | 0.05 | 0.05 | 94 | 1011.0 |
| 20260510003008 | 22 | 32 | 4.8 | 11.3 | 0.00 | 0.05 | 0.05 | 94 | 1011.0 |
| 20260510001511 | 22 | 53 | 1.6 | 9.7 | 0.00 | 0.05 | 0.05 | 94 | 1010.5 |
| 20260510000012 | 23 | 91 | 4.8 | 11.3 | 0.00 | 0.05 | 0.05 | 92 | 1010.0 |
| 20260509234505 | 23 | 94 | 3.2 | 16.1 | 0.00 | 0.05 | 0.05 | 93 | 1009.9 |
| 20260509233004 | 23 | 145 | 1.6 | 8.0 | 0.00 | 0.05 | 0.05 | 94 | 1009.8 |
| 20260509231504 | 23 | 67 | 0.0 | 9.7 | 0.00 | 0.05 | 0.05 | 94 | 1009.6 |
| 20260509230008 | 23 | 43 | 4.8 | 11.3 | 0.00 | 0.05 | 0.05 | 93 | 1009.9 |
| 20260509224505 | 23 | 134 | 3.2 | 9.7 | 0.00 | 0.08 | 0.05 | 93 | 1009.8 |
| 20260509223004 | 23 | 133 | 1.6 | 14.5 | 0.00 | 0.08 | 0.05 | 93 | 1009.9 |
| 20260509221501 | 24 | 62 | 3.2 | 16.1 | 0.00 | 0.08 | 0.05 | 92 | 1009.3 |
| 20260509220001 | 23 | 70 | 6.4 | 16.1 | 0.00 | 0.08 | 0.05 | 94 | 1009.2 |
| 20260509214501 | 23 | 30 | 4.8 | 16.1 | 0.00 | 0.08 | 0.05 | 94 | 1009.2 |
| 20260509213101 | 23 | 118 | 3.2 | 12.9 | 0.00 | 0.08 | 0.05 | 96 | 1009.1 |
| 20260509213001 | 22 | 108 | 3.2 | 12.9 | 0.00 | 0.08 | 0.05 | 96 | 1009.1 |
| 20260509211602 | 22 | 70 | 3.2 | 17.7 | 0.00 | 0.08 | 0.05 | 97 | 1008.8 |
| 20260509210108 | 22 | 60 | 6.4 | 19.3 | 0.00 | 0.08 | 0.05 | 96 | 1008.7 |
| 20260509204600 | 21 | 43 | 11.3 | 22.5 | 0.00 | 0.64 | 0.05 | 96 | 1008.9 |
| 20260509203058 | 21 | 34 | 9.7 | 19.3 | 0.00 | 0.64 | 0.05 | 96 | 1009.5 |
| 20260509201603 | 22 | 106 | 3.2 | 8.0 | 0.03 | 0.64 | 0.05 | 96 | 1010.1 |
| 20260509200106 | 21 | 58 | 0.0 | 9.7 | 0.05 | 0.64 | 0.05 | 96 | 1010.0 |
| 20260509194554 | 21 | 52 | 3.2 | 16.1 | 0.05 | 0.66 | 0.05 | 96 | 1009.9 |
| 20260509193056 | 21 | 86 | 3.2 | 12.9 | 0.05 | 0.66 | 0.05 | 95 | 1009.8 |
| 20260509191552 | 22 | 62 | 4.8 | 12.9 | 0.03 | 0.64 | 0.03 | 94 | 1010.2 |
| 20260509190051 | 22 | 54 | 8.0 | 16.1 | 0.00 | 0.61 | 0.00 | 94 | 1010.1 |
| 20260509184600 | 22 | 63 | 4.8 | 17.7 | 0.00 | 0.64 | 0.00 | 92 | 1009.8 |
| 20260509183050 | 22 | 31 | 6.4 | 20.9 | 0.00 | 0.64 | 0.00 | 92 | 1009.9 |
| 20260509181607 | 23 | 61 | 9.7 | 20.9 | 0.00 | 0.64 | 0.00 | 93 | 1010.0 |
| 20260509180049 | 24 | 49 | 9.7 | 16.1 | 0.00 | 0.64 | 0.00 | 93 | 1009.8 |
| 20260509174548 | 25 | 53 | 4.8 | 14.5 | 0.00 | 1.78 | 0.00 | 93 | 1010.0 |
| 20260509173059 | 25 | 73 | 3.2 | 11.3 | 0.00 | 1.78 | 0.00 | 94 | 1010.1 |
| 20260509171546 | 25 | 63 | 3.2 | 9.7 | 0.00 | 1.78 | 0.00 | 94 | 1010.4 |
| 20260509170044 | 25 | 66 | 6.4 | 11.3 | 0.00 | 1.78 | 0.00 | 96 | 1010.1 |
| 20260509164543 | 25 | 61 | 4.8 | 11.3 | 0.00 | 2.08 | 0.00 | 97 | 1010.4 |
| 20260509163043 | 25 | 78 | 0.0 | 4.8 | 0.00 | 2.08 | 0.00 | 99 | 1010.7 |
| 20260509161506 | 25 | 136 | 3.2 | 6.4 | 0.00 | 2.08 | 0.00 | 100 | 1010.7 |
| 20260509160050 | 25 | 122 | 0.0 | 6.4 | 0.00 | 2.08 | 0.00 | 100 | 1010.8 |
| 20260509154527 | 23 | 72 | 0.0 | 6.4 | 0.00 | 2.26 | 0.00 | 100 | 1010.7 |
| 20260509153018 | 23 | 110 | 0.0 | 4.8 | 0.00 | 2.26 | 0.00 | 100 | 1010.3 |
| 20260509151613 | 23 | 59 | 0.0 | 0.0 | 0.00 | 2.26 | 0.00 | 100 | 1010.2 |
| 20260509150042 | 23 | 110 | 0.0 | 3.2 | 0.00 | 2.26 | 0.00 | 100 | 1010.6 |
| 20260509144601 | 23 | 115 | 0.0 | 6.4 | 0.00 | 2.57 | 0.00 | 100 | 1010.3 |
| 20260509144526 | 23 | 70 | 0.0 | 8.0 | 0.00 | 2.57 | 0.00 | 100 | 1010.3 |
| 20260509143028 | 22 | 20 | 1.6 | 8.0 | 0.00 | 2.57 | 0.00 | 100 | 1010.1 |
| 20260509141530 | 22 | 76 | 3.2 | 6.4 | 0.00 | 2.57 | 0.00 | 100 | 1010.2 |
| 20260509140022 | 22 | 65 | 3.2 | 8.0 | 0.00 | 2.57 | 0.00 | 100 | 1010.1 |
| 20260509134537 | 22 | 64 | 1.6 | 4.8 | 0.00 | 2.62 | 0.00 | 100 | 1010.0 |
| 20260509133021 | 22 | 27 | 3.2 | 8.0 | 0.00 | 2.62 | 0.00 | 100 | 1010.3 |
| 20260509131517 | 22 | 39 | 1.6 | 6.4 | 0.00 | 2.62 | 0.00 | 100 | 1010.5 |
| 20260509130015 | 22 | 69 | 1.6 | 6.4 | 0.00 | 2.62 | 0.00 | 100 | 1010.4 |
| 20260509124510 | 22 | 53 | 0.0 | 3.2 | 0.00 | 2.62 | 0.00 | 100 | 1010.1 |
| 20260509123007 | 22 | 72 | 0.0 | 4.8 | 0.00 | 2.62 | 0.00 | 100 | 1010.0 |
| 20260509121505 | 22 | 117 | 0.0 | 0.0 | 0.00 | 2.62 | 0.00 | 100 | 1009.8 |
| 20260509120114 | 22 | 117 | 0.0 | 0.0 | 0.00 | 2.62 | 0.00 | 100 | 1010.0 |
| 20260509114600 | 22 | 124 | 0.0 | 0.0 | 0.00 | 2.62 | 0.00 | 100 | 1009.8 |
| 20260509113050 | 22 | 120 | 0.0 | 0.0 | 0.00 | 2.62 | 0.00 | 100 | 1009.9 |
| 20260509111558 | 22 | 120 | 0.0 | 0.0 | 0.00 | 2.62 | 0.00 | 100 | 1009.9 |
| 20260509111502 | 22 | 120 | 0.0 | 0.0 | 0.00 | 2.62 | 0.00 | 100 | 1009.9 |
| 20260509110043 | 22 | 120 | 0.0 | 0.0 | 0.00 | 2.62 | 0.00 | 100 | 1009.7 |
| 20260509110008 | 22 | 120 | 0.0 | 0.0 | 0.00 | 2.62 | 0.00 | 100 | 1009.7 |
| 20260509104506 | 22 | 120 | 0.0 | 0.0 | 0.00 | 2.62 | 0.00 | 100 | 1009.3 |
| 20260509103112 | 22 | 120 | 0.0 | 0.0 | 0.00 | 2.62 | 0.00 | 100 | 1009.3 |
| 20260509101509 | 21 | 120 | 0.0 | 0.0 | 0.00 | 2.62 | 0.00 | 100 | 1009.0 |
| 20260509100059 | 21 | 120 | 0.0 | 0.0 | 0.00 | 2.62 | 0.00 | 100 | 1008.6 |
| 20260509100010 | 21 | 120 | 0.0 | 0.0 | 0.00 | 2.62 | 0.00 | 100 | 1008.5 |
| 20260509094526 | 21 | 120 | 0.0 | 0.0 | 0.00 | 2.62 | 0.00 | 100 | 1008.4 |
| 20260509093010 | 21 | 102 | 0.0 | 0.0 | 0.00 | 2.62 | 0.00 | 100 | 1008.7 |
| 20260509091544 | 21 | 91 | 0.0 | 0.0 | 0.00 | 2.62 | 0.00 | 100 | 1008.6 |
| 20260509090050 | 21 | 91 | 0.0 | 0.0 | 0.00 | 2.62 | 0.00 | 100 | 1008.6 |
| 20260509090012 | 21 | 91 | 0.0 | 0.0 | 0.00 | 2.62 | 0.00 | 100 | 1008.6 |
| 20260509083007 | 21 | 91 | 0.0 | 0.0 | 0.00 | 2.62 | 0.00 | 100 | 1009.2 |
| 20260509081542 | 21 | 91 | 0.0 | 0.0 | 0.00 | 2.62 | 0.00 | 100 | 1009.2 |
| 20260509080038 | 20 | 84 | 0.0 | 0.0 | 0.00 | 2.62 | 0.00 | 100 | 1009.1 |
| 20260509074545 | 21 | 84 | 0.0 | 0.0 | 0.00 | 2.62 | 0.00 | 100 | 1009.1 |
| 20260509073144 | 21 | 113 | 0.0 | 0.0 | 0.00 | 2.62 | 0.00 | 100 | 1009.0 |
| 20260509071542 | 21 | 113 | 0.0 | 0.0 | 0.00 | 2.62 | 0.00 | 100 | 1009.1 |
| 20260509070013 | 21 | 130 | 0.0 | 0.0 | 0.00 | 2.62 | 0.00 | 100 | 1009.3 |
| 20260509064501 | 21 | 123 | 3.2 | 6.4 | 0.00 | 2.62 | 0.00 | 100 | 1009.5 |
| 20260509063030 | 20 | 117 | 0.0 | 6.4 | 0.00 | 2.62 | 0.00 | 100 | 1009.7 |
| 20260509061525 | 20 | 116 | 0.0 | 3.2 | 0.00 | 2.62 | 0.00 | 100 | 1010.0 |
| 20260509060024 | 20 | 117 | 0.0 | 0.0 | 0.00 | 2.62 | 0.00 | 100 | 1010.2 |
| 20260509054524 | 20 | 122 | 0.0 | 0.0 | 0.00 | 2.62 | 0.00 | 100 | 1010.4 |
| 20260509053023 | 20 | 50 | 0.0 | 0.0 | 0.00 | 2.62 | 0.00 | 100 | 1010.6 |
| 20260509051521 | 20 | 63 | 0.0 | 0.0 | 0.00 | 2.62 | 0.00 | 100 | 1010.3 |
| 20260509050017 | 21 | 117 | 0.0 | 0.0 | 0.00 | 2.62 | 0.00 | 100 | 1010.6 |
| 20260509044517 | 21 | 114 | 0.0 | 0.0 | 0.00 | 2.62 | 2.62 | 100 | 1010.7 |